Temperature
3 5 5 4 4 4 4 4 4 5 5 6 6 6 7 8 8 8 7 7 7 6 6 6 7 7 7 7 7 8 8 8 9 10 10 10 10 10 11 11 11 11 11 11
3 4 5 4 5 5 5 5 5 5 5 6 6 7 7 7 7 7 7 6 6 6 6 6 6 6 6 6 7 7 7 8 8 9 9 10 10 10 10 10 10 11 10 10
2 4 4 3 5 5 5 5 5 5 5 6 6 7 6 6 6 6 6 6 5 5 5 5 5 5 5 6 6 6 7 7 8 8 9 9 9 9 10 10 10 10 10 10
2 2 1 4 6 6 6 6 6 5 6 6 6 6 6 6 6 5 5 5 5 4 4 4 4 4 5 5 5 6 6 7 7 8 8 8 9 9 10 10 10 10 10 10
1 2 2 5 6 5 5 4 5 5 5 5 6 6 5 6 5 5 4 4 4 4 4 4 4 4 4 4 5 5 5 6 6 7 8 8 8 9 9 9 9 10 10 10
1 1 2 4 5 5 5 3 4 5 4 4 5 3 4 5 5 4 4 4 3 3 3 3 3 3 3 3 4 4 5 5 6 6 7 7 8 8 9 9 9 9 9 9
1 1 2 4 5 5 2 2 4 5 4 4 4 3 4 4 4 4 3 3 3 3 3 3 3 3 3 3 3 4 4 5 5 6 6 7 7 8 8 8 9 9 9 9
1 1 2 4 4 3 3 4 5 4 4 4 4 4 4 3 3 3 3 3 2 2 2 2 2 2 2 3 3 3 4 4 5 5 6 6 7 7 8 8 8 8 8 8
2 2 4 5 4 4 4 4 4 4 4 3 3 3 3 3 3 3 2 2 2 2 2 2 2 2 2 2 2 3 3 4 4 5 5 6 6 7 7 7 7 7 8 8
2 3 4 4 5 4 4 4 3 3 3 3 3 2 2 2 2 2 2 1 1 1 1 1 1 1 2 2 2 2 3 3 3 4 5 5 6 6 6 6 7 7 7 7
1 3 3 4 4 4 4 3 3 3 2 2 2 2 2 2 2 1 1 1 1 1 1 1 1 1 1 1 2 2 2 3 3 4 4 5 5 5 5 6 6 6 6 6
2 3 3 3 4 3 3 3 2 2 2 1 1 1 1 1 1 1 0 0 0 0 0 0 0 1 1 1 1 1 2 2 2 3 3 4 4 5 5 5 5 6 6 6
3 3 3 3 3 3 2 2 1 1 1 1 0 0 0 0 0 -0 -0 -0 -0 -0 -0 -0 0 0 0 0 1 1 1 1 2 2 3 3 4 4 4 5 5 5 5 5
3 3 2 2 2 1 1 1 1 0 0 -0 -0 -0 -0 -0 -0 -1 -1 -1 -1 -1 -1 -1 -1 -0 0 0 0 0 0 1 1 2 2 2 3 3 4 4 4 4 4 5
2 2 1 1 1 1 0 -0 -0 -0 -1 -1 -1 -1 -1 -1 -1 -1 -1 -1 -1 -1 -1 -1 -1 -0 -0 -0 -0 -0 0 0 0 1 1 2 2 3 3 3 3 4 4 4
1 1 1 0 -0 -0 -1 -1 -1 -1 -1 -2 -2 -2 -2 -2 -2 -2 -2 -2 -2 -2 -2 -1 -1 -1 -1 -1 -1 -0 -0 -0 0 0 1 1 2 2 2 3 3 3 3 3
-0 -0 -1 -1 -1 -1 -2 -2 -2 -2 -2 -3 -3 -3 -3 -3 -3 -2 -2 -2 -2 -2 -2 -2 -1 -1 -1 -1 -1 -1 -1 -1 -0 -0 0 0 1 1 2 2 2 2 3 3
-1 -1 -1 -2 -2 -2 -2 -2 -3 -3 -3 -3 -3 -3 -3 -3 -3 -3 -3 -3 -3 -2 -2 -2 -2 -2 -2 -2 -2 -1 -1 -1 -1 -1 -0 0 0 1 1 1 2 2 2 2
-2 -2 -2 -2 -2 -3 -3 -3 -3 -4 -4 -4 -4 -4 -4 -4 -4 -4 -4 -4 -3 -3 -2 -2 -2 -2 -2 -2 -2 -2 -2 -2 -1 -1 -1 -0 0 0 1 1 1 1 2 2
-2 -3 -3 -3 -3 -3 -4 -4 -4 -4 -4 -5 -5 -5 -5 -5 -5 -4 -4 -4 -4 -4 -3 -3 -3 -3 -2 -2 -3 -2 -2 -2 -2 -1 -1 -1 -0 -0 -0 0 1 1 1 1
-3 -3 -4 -4 -4 -4 -4 -5 -5 -5 -5 -5 -5 -5 -5 -5 -5 -5 -5 -5 -4 -4 -4 -4 -3 -3 -3 -3 -3 -3 -3 -2 -2 -2 -1 -1 -1 -1 -0 -0 0 0 0 1
-4 -4 -4 -5 -5 -5 -5 -5 -6 -6 -6 -6 -6 -6 -6 -6 -5 -5 -5 -5 -5 -5 -5 -4 -4 -4 -3 -4 -4 -3 -3 -3 -2 -2 -2 -2 -1 -1 -1 -0 -0 -0 -0 0
-5 -5 -5 -5 -6 -6 -6 -6 -6 -6 -6 -6 -6 -6 -6 -6 -6 -6 -6 -5 -5 -5 -5 -5 -4 -4 -4 -4 -4 -4 -3 -3 -3 -2 -2 -2 -2 -1 -1 -1 -1 -0 -0 -0
-5 -5 -6 -6 -6 -6 -6 -6 -6 -6 -6 -6 -6 -6 -7 -6 -6 -6 -6 -6 -6 -6 -5 -5 -5 -5 -4 -4 -4 -4 -4 -3 -3 -3 -2 -2 -2 -1 -1 -1 -1 -1 -1 -0
-6 -6 -6 -6 -7 -7 -7 -7 -7 -7 -7 -7 -7 -7 -7 -7 -7 -7 -6 -6 -6 -6 -6 -5 -5 -5 -5 -4 -4 -4 -4 -4 -3 -3 -3 -2 -2 -2 -2 -2 -1 -1 -1 -1
-6 -7 -7 -7 -7 -7 -8 -8 -8 -8 -8 -8 -7 -7 -7 -7 -7 -7 -7 -6 -6 -6 -6 -6 -5 -5 -5 -5 -4 -4 -4 -4 -3 -3 -3 -3 -3 -2 -2 -2 -2 -1 -1 -1
-7 -8 -8 -8 -8 -8 -8 -8 -8 -9 -8 -8 -8 -8 -8 -7 -7 -7 -7 -7 -7 -6 -6 -6 -6 -6 -5 -5 -5 -4 -4 -4 -3 -3 -3 -3 -3 -3 -2 -2 -2 -2 -2 -1
Wind_Speed
14 15 13 14 15 13 13 13 12 14 15 13 9 9 8 7 6 5 5 5 5 5 5 5 5 5 6 5 4 4 4 3 4 4 5 5 6 8 9 8 9 9 11 12
12 13 14 18 17 16 17 16 17 17 19 13 9 8 8 6 5 5 5 6 6 6 6 5 5 6 6 6 6 5 5 4 3 3 3 4 5 7 8 8 8 8 9 12
8 9 10 12 13 15 14 13 13 15 14 9 8 7 6 4 4 4 4 5 5 5 5 5 5 5 6 6 6 6 5 4 3 2 2 3 5 6 8 8 8 8 9 10
6 5 10 8 4 7 10 12 11 11 9 8 7 6 4 2 2 3 4 5 5 4 5 5 4 4 5 5 5 6 6 5 4 3 2 3 4 6 7 7 8 8 9 10
4 7 10 8 6 6 7 8 6 8 7 6 6 5 4 3 2 2 4 4 4 4 4 4 4 4 5 5 5 5 6 5 5 4 3 3 4 5 6 6 7 7 8 9
6 6 7 4 0 1 0 6 4 4 5 5 4 4 4 4 3 3 3 3 4 4 4 4 4 3 4 5 5 5 6 6 5 4 4 4 4 4 4 5 6 6 7 8
12 9 8 5 2 4 3 6 1 1 3 4 4 4 4 4 4 4 4 4 4 5 4 4 4 3 4 5 5 5 6 6 6 5 4 4 4 4 4 4 5 6 6 6
8 9 10 3 4 5 6 2 2 3 3 5 5 5 5 5 4 4 4 4 4 4 4 4 4 3 4 5 5 6 6 6 6 5 4 3 3 3 4 4 5 5 6 6
9 9 5 3 5 5 4 4 5 4 5 6 6 6 6 6 4 4 4 3 3 4 5 5 4 3 4 5 5 6 6 6 6 6 4 3 3 4 4 4 4 5 5 5
7 9 8 7 7 6 5 6 6 6 6 6 7 7 7 6 5 4 4 4 3 4 5 5 5 4 4 4 5 6 6 6 6 5 4 3 2 3 4 4 4 4 5 5
11 10 9 8 8 8 7 6 6 6 6 7 7 8 8 6 5 5 4 4 4 4 5 5 5 5 5 4 4 5 6 6 6 4 4 2 2 3 4 4 6 6 5 5
10 6 6 7 6 6 7 6 6 7 7 7 7 7 7 6 5 4 4 4 4 5 5 5 5 5 5 4 4 5 6 6 4 4 3 1 1 2 2 3 5 6 6 6
11 9 9 9 7 6 5 6 6 6 7 7 7 7 7 6 5 5 5 5 5 5 5 5 6 6 5 4 4 4 6 6 4 4 2 2 1 1 1 1 1 4 5 6
8 8 9 8 7 6 6 6 6 6 6 6 6 6 5 5 5 5 5 5 5 5 6 6 6 6 5 4 4 5 5 6 5 3 2 2 2 2 3 3 2 1 3 7
7 6 7 6 6 5 5 5 6 6 6 6 5 5 5 5 6 6 5 5 5 5 6 6 6 6 5 4 4 5 5 4 3 3 2 2 2 2 3 3 3 3 2 4
6 6 6 6 6 6 6 6 6 7 6 6 6 5 5 5 5 5 5 5 5 6 6 6 7 6 4 4 5 4 4 5 5 3 2 2 2 2 3 3 4 4 4 4
5 5 5 5 6 6 6 6 6 6 5 5 6 5 5 5 5 6 6 5 5 6 6 6 7 5 4 4 4 3 3 4 5 3 2 2 2 3 3 4 4 4 4 5
4 4 4 4 5 5 6 5 5 5 5 5 5 5 5 5 6 6 6 5 5 6 6 6 5 4 4 4 3 3 3 3 3 3 2 2 3 3 3 4 4 5 4 5
2 3 3 3 3 4 4 4 4 4 4 4 4 5 6 6 6 6 5 5 6 7 6 4 5 4 4 4 4 3 4 4 3 3 3 4 3 3 3 4 4 4 5 5
2 2 2 3 3 3 3 3 3 4 4 4 4 5 6 6 5 6 6 6 6 5 5 5 5 4 4 4 5 3 4 4 4 3 3 3 3 3 3 4 4 4 4 5
2 2 2 2 3 3 3 3 3 4 5 4 5 6 6 6 6 5 6 7 6 4 5 7 4 4 4 4 5 4 4 4 4 3 3 3 3 3 3 4 4 4 4 5
2 2 2 2 3 4 4 3 3 4 5 5 6 6 6 7 6 6 6 6 6 7 5 4 3 5 5 6 4 4 4 4 4 3 3 3 3 4 4 4 4 4 5 5
2 2 2 3 3 4 5 4 4 4 5 6 6 6 6 6 5 5 6 4 4 7 5 3 5 7 7 4 3 4 4 4 4 3 3 3 4 4 4 5 4 5 5 5
3 3 3 3 3 4 5 5 4 4 5 6 6 6 6 5 5 5 5 7 8 7 4 5 7 7 6 2 3 3 4 4 4 3 3 3 3 3 4 4 4 5 5 6
3 3 3 3 4 4 5 5 5 5 5 5 6 6 5 4 5 5 4 4 6 6 4 5 7 7 4 3 3 3 4 4 4 3 3 3 4 4 4 4 5 5 5 6
3 3 3 4 4 4 4 4 4 4 5 5 5 5 4 4 4 4 4 4 4 6 4 3 3 3 2 2 3 3 3 3 3 3 3 3 4 4 4 4 5 5 5 6
3 3 3 3 3 3 3 4 4 5 5 5 6 5 5 4 4 3 3 3 3 3 3 2 1 1 1 1 2 2 2 2 3 3 3 3 4 4 4 5 5 5 6 6
Wind_Direction
259 268 272 267 266 258 248 247 256 265 270 277 290 294 303 309 315 326 331 335 334 336 337 343 347 343 341 335 335 319 303 286 258 236 218 210 213 206 197 195 195 193 190 187
270 265 266 267 263 258 256 255 256 264 270 274 280 285 292 299 310 320 321 328 336 338 337 338 339 339 339 339 339 335 322 305 292 261 228 215 219 201 193 195 192 192 194 188
272 282 286 267 251 246 245 245 249 257 264 280 284 285 293 300 309 313 317 326 331 332 329 325 327 330 329 329 331 332 318 309 310 299 266 232 221 202 194 196 193 194 197 193
273 283 253 248 236 240 249 252 249 259 270 277 280 286 288 297 306 317 327 325 322 322 319 317 323 326 322 322 323 323 317 308 311 293 269 260 222 208 202 195 195 197 197 197
250 260 270 267 252 240 249 265 254 265 279 293 295 295 296 312 307 302 305 308 311 309 305 310 317 322 322 317 315 316 317 312 306 295 278 273 241 215 206 196 197 199 196 193
238 249 255 261 57 103 287 275 260 257 275 293 301 279 283 321 331 324 326 326 323 317 312 314 316 325 320 312 313 314 311 306 302 299 277 263 249 229 214 201 198 194 197 194
236 249 262 265 178 122 192 250 301 302 288 287 274 254 279 303 312 315 315 314 320 315 310 308 313 322 313 314 314 311 308 305 302 294 275 264 251 237 212 198 191 191 191 192
218 234 249 209 168 197 226 273 297 277 272 279 284 288 290 288 290 298 306 313 322 320 311 308 307 310 309 308 311 313 311 308 299 294 282 272 239 232 213 193 188 189 187 184
210 226 247 206 221 227 234 263 271 276 278 276 279 283 283 276 273 277 288 296 308 307 310 310 310 310 303 304 312 315 314 311 305 299 290 266 231 222 207 193 189 189 184 183
254 251 256 259 260 259 251 256 267 271 275 273 274 278 276 270 268 270 275 280 284 291 298 303 308 309 295 300 310 312 309 306 302 297 293 268 238 221 207 198 194 188 186 185
252 261 273 262 261 266 269 270 274 275 273 271 272 274 273 274 271 267 271 274 274 273 279 287 297 297 295 301 310 307 303 302 301 297 292 265 255 236 219 211 201 195 196 192
246 247 253 266 265 264 268 271 272 272 274 272 267 272 273 274 274 274 271 268 270 270 273 282 289 290 291 294 294 298 299 299 298 297 289 265 253 287 249 211 200 196 194 193
253 264 269 277 285 289 280 277 276 270 267 274 274 271 269 270 268 269 270 269 268 272 275 279 282 285 286 285 282 282 287 289 292 291 276 271 246 219 244 3 146 177 178 177
258 266 268 269 273 281 283 284 282 279 276 274 274 276 275 276 273 270 269 271 271 271 274 276 278 279 283 281 278 276 283 283 283 279 260 253 245 231 202 185 189 186 167 163
260 257 259 268 269 274 282 284 282 279 278 279 277 273 268 269 271 272 274 279 279 273 271 272 274 276 281 279 275 276 280 281 280 274 267 253 242 233 205 185 181 172 147 153
266 263 263 265 268 275 280 277 275 276 278 280 283 283 279 272 271 273 275 273 270 269 269 271 271 271 276 275 274 274 274 279 282 271 262 251 235 228 204 184 177 176 175 165
251 256 261 272 276 277 277 276 275 279 282 283 284 289 289 282 278 276 276 276 271 269 266 262 263 265 264 259 258 263 265 274 276 269 256 248 234 220 200 185 183 182 181 174
231 240 246 255 269 277 282 285 284 286 287 288 292 290 283 273 270 273 278 283 281 275 267 260 256 258 254 251 251 251 257 263 257 248 249 247 242 220 196 186 181 174 169 162
290 270 267 265 269 271 278 283 288 291 294 296 291 286 283 275 274 278 281 276 270 272 272 262 268 262 251 247 252 244 245 250 253 246 241 246 247 214 192 184 178 168 164 159
323 315 297 294 294 289 290 296 300 298 295 292 287 287 284 282 284 285 280 272 263 258 263 267 264 249 242 241 252 239 236 241 244 239 229 227 226 210 191 184 171 162 163 161
320 320 316 313 313 316 310 308 304 298 301 299 288 284 283 285 286 283 278 279 276 264 263 268 261 245 235 240 249 237 236 238 239 235 225 217 215 205 188 178 169 163 162 155
316 314 312 314 315 316 317 313 303 300 302 299 294 288 286 287 287 283 270 265 274 277 274 255 246 249 250 252 231 227 231 234 234 229 220 208 205 201 189 177 169 167 161 155
307 303 306 308 306 306 310 307 301 299 294 292 291 289 285 283 281 277 282 276 273 277 276 257 259 265 270 256 226 223 227 228 228 221 216 209 203 193 183 177 172 167 160 156
300 305 303 302 302 300 300 302 301 298 292 292 290 288 288 289 289 278 273 279 283 283 274 268 270 270 271 244 219 220 223 223 220 214 211 205 190 182 179 174 170 164 159 155
289 290 289 289 291 287 287 297 304 300 298 298 294 292 287 277 276 284 285 282 284 287 283 276 271 269 257 229 217 221 221 217 211 203 199 190 181 179 179 171 166 162 159 158
276 277 278 276 276 283 292 296 298 300 302 303 303 302 298 293 286 285 284 283 284 291 291 281 270 266 242 224 216 215 209 209 214 208 193 183 174 175 175 168 163 161 157 156
275 275 282 289 286 283 288 292 292 294 295 295 298 298 297 297 294 290 286 284 284 285 285 279 262 242 233 234 217 205 202 201 198 192 181 176 175 173 171 165 162 158 156 156
Height
1429 1425 1424 1423 1421 1419 1419 1416 1415 1404 1399 1394 1394 1393 1392 1390 1389 1388 1388 1387 1386 1384 1383 1381 1381 1380 1378 1377 1376 1376 1376 1376 1377 1380 1382 1384 1388 1392 1395 1399 1403 1407 1411 1415
1426 1420 1418 1414 1410 1409 1408 1406 1404 1400 1395 1391 1391 1390 1389 1388 1387 1387 1387 1386 1385 1383 1381 1380 1379 1378 1376 1374 1374 1373 1372 1373 1375 1376 1378 1380 1383 1386 1390 1394 1398 1402 1405 1409
1424 1416 1414 1410 1399 1398 1397 1395 1396 1394 1390 1388 1387 1387 1386 1386 1385 1385 1385 1384 1383 1381 1380 1379 1377 1376 1374 1373 1372 1371 1371 1371 1371 1373 1374 1377 1379 1382 1385 1388 1392 1396 1399 1403
1424 1421 1422 1399 1388 1388 1388 1387 1387 1385 1384 1384 1384 1383 1383 1383 1383 1383 1383 1382 1381 1379 1378 1377 1375 1374 1372 1371 1370 1369 1368 1368 1368 1369 1371 1373 1375 1377 1380 1383 1387 1390 1394 1397
1423 1419 1405 1391 1385 1385 1387 1386 1383 1382 1381 1381 1381 1380 1381 1381 1381 1381 1381 1380 1379 1377 1376 1374 1373 1372 1370 1369 1368 1367 1366 1366 1366 1366 1367 1368 1370 1373 1375 1378 1381 1385 1388 1391
1419 1416 1406 1388 1383 1381 1385 1388 1380 1379 1380 1380 1379 1382 1381 1380 1379 1379 1378 1377 1376 1375 1373 1372 1370 1369 1368 1367 1366 1365 1364 1364 1363 1363 1364 1365 1367 1369 1371 1374 1377 1380 1383 1386
1414 1410 1397 1385 1381 1382 1392 1388 1378 1377 1378 1378 1378 1379 1378 1377 1377 1376 1376 1375 1373 1372 1370 1369 1368 1367 1366 1364 1363 1362 1361 1361 1361 1361 1361 1362 1363 1365 1367 1370 1372 1375 1379 1382
1407 1406 1395 1380 1381 1383 1381 1377 1376 1376 1376 1376 1375 1374 1374 1374 1374 1373 1372 1371 1370 1369 1367 1366 1365 1364 1362 1361 1360 1359 1358 1357 1357 1357 1357 1358 1360 1361 1363 1365 1368 1371 1374 1377
1391 1385 1377 1375 1375 1374 1374 1374 1374 1374 1373 1373 1372 1371 1371 1370 1370 1369 1369 1368 1367 1365 1364 1363 1362 1361 1359 1358 1357 1356 1355 1354 1353 1353 1354 1354 1356 1357 1359 1361 1363 1366 1369 1372
1380 1374 1372 1372 1371 1372 1371 1370 1370 1370 1370 1369 1368 1367 1367 1366 1365 1365 1364 1364 1363 1362 1360 1359 1358 1357 1356 1355 1354 1352 1351 1350 1350 1350 1350 1351 1352 1353 1355 1357 1359 1362 1364 1367
1374 1370 1369 1367 1367 1367 1366 1366 1365 1365 1365 1364 1363 1362 1362 1361 1360 1360 1359 1359 1358 1357 1356 1355 1355 1354 1353 1351 1350 1349 1348 1347 1347 1347 1346 1347 1348 1350 1352 1354 1356 1358 1359 1362
1367 1364 1365 1363 1363 1362 1361 1361 1360 1360 1359 1359 1358 1357 1357 1356 1355 1355 1354 1354 1353 1353 1352 1351 1350 1349 1349 1348 1347 1346 1344 1344 1343 1343 1343 1344 1345 1347 1348 1351 1353 1355 1357 1359
1359 1359 1359 1358 1357 1357 1356 1355 1355 1355 1354 1353 1353 1352 1352 1351 1350 1350 1349 1349 1348 1347 1347 1346 1345 1344 1344 1344 1343 1342 1341 1340 1340 1339 1340 1340 1341 1343 1344 1346 1349 1351 1353 1355
1353 1354 1352 1352 1352 1352 1351 1351 1350 1349 1349 1348 1348 1347 1346 1345 1345 1344 1344 1344 1343 1342 1342 1341 1341 1340 1340 1339 1339 1338 1337 1336 1336 1336 1336 1337 1338 1339 1340 1342 1344 1346 1349 1352
1348 1348 1347 1346 1346 1346 1346 1346 1345 1344 1343 1343 1342 1342 1341 1340 1339 1339 1339 1338 1338 1337 1336 1336 1335 1335 1335 1334 1334 1333 1333 1332 1332 1332 1332 1333 1334 1335 1337 1339 1341 1343 1345 1348
1342 1342 1342 1342 1341 1341 1341 1341 1340 1339 1338 1337 1337 1336 1336 1335 1334 1334 1333 1333 1332 1331 1331 1330 1330 1330 1330 1330 1329 1329 1328 1328 1328 1328 1329 1329 1330 1332 1333 1335 1337 1339 1341 1344
1338 1337 1337 1337 1337 1337 1337 1336 1336 1335 1334 1333 1332 1331 1330 1330 1329 1328 1327 1327 1326 1326 1325 1325 1324 1325 1325 1325 1324 1324 1324 1324 1324 1325 1325 1326 1327 1328 1330 1331 1333 1336 1338 1341
1333 1333 1334 1334 1333 1333 1332 1331 1331 1330 1329 1328 1327 1326 1325 1324 1323 1322 1321 1321 1320 1320 1319 1319 1319 1319 1319 1319 1319 1320 1320 1320 1320 1321 1322 1322 1323 1325 1326 1328 1330 1333 1335 1338
1329 1329 1330 1330 1329 1329 1328 1327 1326 1325 1324 1323 1322 1321 1320 1319 1318 1317 1316 1315 1314 1313 1313 1314 1313 1313 1314 1314 1315 1315 1316 1316 1316 1317 1318 1319 1320 1321 1323 1325 1327 1329 1332 1335
1326 1326 1326 1325 1325 1325 1324 1323 1322 1321 1320 1319 1318 1316 1315 1314 1313 1312 1311 1310 1309 1308 1308 1308 1308 1308 1308 1309 1310 1310 1311 1311 1312 1313 1313 1315 1316 1318 1320 1321 1323 1326 1329 1332
1324 1324 1323 1322 1322 1321 1320 1319 1318 1317 1316 1315 1314 1312 1310 1309 1308 1306 1305 1303 1303 1303 1303 1303 1303 1303 1303 1304 1305 1306 1306 1307 1308 1309 1310 1311 1313 1314 1317 1319 1321 1323 1326 1329
1322 1321 1321 1320 1319 1318 1317 1316 1315 1313 1312 1311 1309 1308 1306 1304 1302 1301 1300 1299 1298 1298 1298 1297 1297 1298 1298 1299 1300 1301 1302 1303 1304 1305 1306 1308 1310 1311 1314 1316 1318 1320 1323 1326
1320 1319 1318 1317 1316 1315 1313 1313 1311 1310 1308 1306 1305 1303 1301 1299 1298 1296 1294 1294 1294 1293 1293 1292 1292 1293 1293 1294 1295 1296 1297 1299 1300 1301 1303 1305 1307 1309 1311 1313 1316 1318 1320 1323
1318 1317 1316 1314 1313 1311 1310 1308 1307 1306 1304 1302 1301 1299 1297 1295 1293 1292 1291 1290 1289 1289 1288 1287 1288 1288 1289 1290 1291 1292 1293 1295 1297 1298 1300 1302 1304 1306 1309 1311 1313 1316 1318 1322
1316 1314 1313 1311 1310 1308 1306 1305 1303 1301 1300 1298 1296 1295 1293 1292 1290 1288 1287 1286 1285 1284 1283 1283 1284 1285 1286 1286 1288 1289 1290 1292 1294 1295 1297 1299 1302 1304 1306 1308 1311 1313 1316 1320
1312 1311 1310 1309 1307 1305 1303 1302 1300 1298 1296 1294 1293 1291 1290 1288 1287 1285 1284 1283 1282 1281 1281 1280 1281 1281 1282 1283 1285 1286 1288 1290 1291 1293 1295 1297 1299 1301 1304 1306 1309 1312 1315 1318
1309 1308 1307 1305 1303 1302 1300 1299 1297 1295 1294 1292 1290 1288 1287 1285 1284 1282 1281 1280 1279 1279 1278 1278 1279 1279 1280 1281 1282 1284 1286 1288 1289 1291 1293 1295 1297 1299 1302 1304 1307 1310 1313 1317